This is the latest recevied weather packets stored in our database for station/object 4S6DRJ-13. If no packets are shown the sender has not sent any weather packets the latest 10 day(s).
| Time | Temp. | Humidity | Pressure | Rain* | Wind** | Luminosity | Snow |
|---|---|---|---|---|---|---|---|
| 1788004933 | 28.89° C | 79% | 1008.3 hPa | 0 mm | 1.79 m/s, 189° | 70 W/m² | - |
| 1788004877 | 28.89° C | 79% | 1008.4 hPa | 0 mm | 0.89 m/s, 49° | 74 W/m² | - |
| 1788004811 | 29.44° C | 79% | 1008.3 hPa | 0 mm | 1.79 m/s, 322° | 77 W/m² | - |
| 1788004750 | 29.44° C | 78% | 1008.3 hPa | 0 mm | 1.34 m/s, 173° | 79 W/m² | - |
| 1788004689 | 29.44° C | 79% | 1008.3 hPa | 0 mm | 0.89 m/s, 150° | 80 W/m² | - |
| 1788004628 | 29.44° C | 79% | 1008.3 hPa | 0 mm | 1.79 m/s, 303° | 81 W/m² | - |
| 1788004568 | 29.44° C | 79% | 1008.4 hPa | 0 mm | 0.89 m/s, 237° | 81 W/m² | - |
| 1788004506 | 28.89° C | 79% | 1008.2 hPa | 0 mm | 0.89 m/s, 283° | 84 W/m² | - |
| 1788004445 | 28.89° C | 79% | 1008.3 hPa | 0 mm | 0.45 m/s, 280° | 86 W/m² | - |
| 1788004384 | 28.89° C | 79% | 1008.4 hPa | 0 mm | 1.34 m/s, 226° | 84 W/m² | - |
| 1788004323 | 28.89° C | 79% | 1008.3 hPa | 0 mm | 1.79 m/s, 332° | 81 W/m² | - |
| 1788004262 | 28.89° C | 79% | 1008.3 hPa | 0 mm | 1.79 m/s, 297° | 69 W/m² | - |
| 1788004201 | 28.89° C | 79% | 1008.1 hPa | 0 mm | 0.89 m/s, 286° | 58 W/m² | - |
| 1788004140 | 29.44° C | 78% | 1008.2 hPa | 0 mm | 2.24 m/s, 245° | 58 W/m² | - |
| 1788004079 | 28.89° C | 78% | 1008.2 hPa | 0 mm | 0 m/s | 70 W/m² | - |
| 1788004018 | 29.44° C | 78% | 1008 hPa | 0 mm | 0.89 m/s, 275° | 79 W/m² | - |
| 1788003957 | 29.44° C | 78% | 1008.3 hPa | 0 mm | 0.89 m/s, 213° | 90 W/m² | - |
| 1788003896 | 29.44° C | 78% | 1008.1 hPa | 0 mm | 3.58 m/s, 211° | 97 W/m² | - |
| 1788003835 | 29.44° C | 78% | 1008.4 hPa | 0 mm | 1.34 m/s, 107° | 102 W/m² | - |
| 1788003774 | 29.44° C | 78% | 1008.4 hPa | 0 mm | 1.34 m/s, 7° | 106 W/m² | - |
| 1788003715 | 29.44° C | 78% | 1008.2 hPa | 0 mm | 1.79 m/s, 236° | 108 W/m² | - |
| 1788003652 | 29.44° C | 78% | 1008.1 hPa | 0 mm | 1.79 m/s, 145° | 109 W/m² | - |
| 1788003591 | 29.44° C | 78% | 1008.1 hPa | 0 mm | 1.79 m/s, 168° | 112 W/m² | - |
| 1788003531 | 29.44° C | 77% | 1008.2 hPa | 0 mm | 1.79 m/s, 219° | 117 W/m² | - |
| 1788003469 | 29.44° C | 77% | 1008.2 hPa | 0 mm | 1.79 m/s, 263° | 119 W/m² | - |
* Rain latest hour (hover to see other rain measurements)
** Current wind speed in m/s (hover to see current wind gust speed)